Regional Weather Roundup
Issued by NWS

Home | Current Version | Previous Version | Graphics & Text | Print | Product List | Glossary On
Versions: 1 2 3 4 5 6 7 8 9 10 11 12 13 14 15 16 17 18 19 20 21 22 23 24 25 26 27 28 29 30 31 32 33 34 35 36 37 38 39 40 41 42 43 44 45 46 47 48 49 50
000
ASUS45 KBOI 181310
RWRID
WEATHER ROUNDUP FOR IDAHO
NATIONAL WEATHER SERVICE BOISE ID
700 AM MDT SAT APR 18 2015

NOTE: "FAIR" INDICATES FEW OR NO CLOUDS BELOW 12000 FEET
WITH NO SIGNIFICANT WEATHER AND/OR OBSTRUCTIONS TO VISIBILITY

IDZ012-014-181400-
SOUTHWEST IDAHO


CITY           SKY/WX    TMP DP  RH WIND       PRES   REMARKS
BOISE          CLEAR     45  32  60 W3        30.08S
CALDWELL       CLEAR     46  28  49 W13       30.12R
MOUNTAIN HOME  CLEAR     47  30  51 NW21      30.05R
$$

IDZ016-017-181400-
SOUTHCENTRAL IDAHO


CITY           SKY/WX    TMP DP  RH WIND       PRES   REMARKS
BURLEY         CLEAR     40  29  64 W9        30.06R WCI  34
JEROME         CLEAR     40  28  62 S6        30.07R
TWIN FALLS     CLEAR     46  26  45 S10       30.07R
$$

IDZ019>023-181400-
SOUTHEAST IDAHO


CITY           SKY/WX    TMP DP  RH WIND       PRES   REMARKS
IDAHO FALLS    CLEAR     31  25  78 N3        30.07R
POCATELLO      CLEAR     42  28  57 SW10      30.08R
REXBURG        CLEAR     30  24  78 NE6       30.08R WCI  24
$$

IDZ006-010-011-018-031-032-181400-
CENTRAL IDAHO MOUNTAINS


CITY           SKY/WX    TMP DP  RH WIND       PRES   REMARKS
MCCALL         CLEAR     35  27  72 CALM      30.16S
HAILEY         CLEAR     46  27  46 W12       30.09S
STANLEY          N/A     23  18  81 CALM      30.20S
SALMON         CLEAR     30  25  80 CALM      30.16R
CHALLIS        CLEAR     31  21  66 CALM      30.16R
$$

IDZ002-004-006-007-026-181400-
NORTHERN IDAHO


CITY           SKY/WX    TMP DP  RH WIND       PRES   REMARKS
LEWISTON       CLEAR     43  35  73 S7        30.19R
LOWELL           N/A     39  37  92 NW5       30.25R
COEUR D`ALENE  CLEAR     39  37  93 E7        30.21R WCI  34
MULLAN PASS    CLEAR     36  30  79 NW6       30.17R WCI  31
$$



USA.gov is the U.S. government's official web portal to all federal, state and local government web resources and services.